Weather History for KMGW - January, 2010

Change the Weather History Date:

Saturday, January 16, 2010

  Actual Average Record
Temperature  
Mean Temperature 44 °F 31 °F  
Max Temperature 52 °F 39 °F 62 °F (1949)
Min Temperature 36 °F 24 °F -20 °F (1972)
Degree Days  
Heating Degree Days 21 34  
Month to date heating degree days 637 541  
Since 1 July heating degree days 2397 2525  
Cooling Degree Days 0 0  
Month to date cooling degree days 0 0  
Year to date cooling degree days 0 0  
Moisture  
Dew Point 34 °F    
Average Humidity 72    
Maximum Humidity 85    
Minimum Humidity 59    
Precipitation  
Precipitation 0.00 in 0.09 in 0.74 in (1991)
Month to date precipitation 0.28 1.44  
Year to date precipitation 0.28 1.44  
Snow  
Snow 0.00 in - - ()
Snow Depth 0.00 in    
Sea Level Pressure  
Sea Level Pressure 30.23 in    
Wind  
Wind Speed 1 mph (SSW)    
Max Wind Speed 8 mph    
Max Gust Speed 10 mph    
Visibility 8 miles    
Events      
T = Trace of Precipitation, MM = Missing Value Source: NWS Daily Summary

Daily Weather History Graph

Daily Weather History Graph

Search for Another Location

Airport or City:

Trip Planner

Search our weather history database for the weather conditions in past years. The results will help you decide how hot, cold, wet, or windy it might be!

Date:

Astronomy

Jan. 16, 2010 Rise Set
Actual Time 7:38 AM EST 5:20 PM EST
Civil Twilight 7:08 AM EST 5:50 PM EST
Nautical Twilight 6:35 AM EST 6:23 PM EST
Astronomical Twilight 6:03 AM EST 6:55 PM EST
Moon 8:19 AM EST (1/16) 6:52 PM EST (1/16)
Length of Visible Light 10h 41m
Length of Day
9h 42m
New Moon, 2% of the Moon is Illuminated
Jan 16
New Moon
Jan 23
First Quarter
Jan 30
Full
Feb 5
Last Quarter
Feb 13
New

Hourly Weather History & Observations

Time (EST) Temp. Windchill Dew Point Humidity Pressure Visibility Wind Dir Wind Speed Gust Speed Precip Events Conditions
12:13 AM 39.2 °F - 30.2 °F 70% 30.27 in 10.0 mi Calm Calm - N/A   Overcast
12:53 AM 39.9 °F - 32.0 °F 73% 30.29 in 10.0 mi Calm Calm - N/A   Overcast
1:53 AM 39.0 °F - 32.0 °F 76% 30.27 in 10.0 mi Calm Calm - N/A   Overcast
2:30 AM 39.2 °F - 32.0 °F 75% 30.23 in 10.0 mi Calm Calm - N/A   Overcast
2:40 AM 37.4 °F - 30.2 °F 75% 30.23 in 10.0 mi Calm Calm - N/A   Mostly Cloudy
2:53 AM 37.9 °F - 30.9 °F 76% 30.26 in 10.0 mi Calm Calm - N/A   Partly Cloudy
3:17 AM 39.2 °F - 32.0 °F 75% 30.24 in 9.0 mi Calm Calm - N/A   Mostly Cloudy
3:53 AM 37.0 °F - 30.9 °F 79% 30.27 in 7.0 mi Calm Calm - N/A   Overcast
4:53 AM 37.0 °F - 32.0 °F 82% 30.29 in 7.0 mi Calm Calm - N/A   Overcast
5:27 AM 37.4 °F - 32.0 °F 81% 30.26 in 7.0 mi Calm Calm - N/A   Overcast
5:53 AM 37.9 °F - 32.0 °F 79% 30.28 in 7.0 mi Calm Calm - N/A   Overcast
6:06 AM 37.4 °F - 32.0 °F 81% 30.25 in 7.0 mi Calm Calm - N/A   Overcast
6:22 AM 37.4 °F - 32.0 °F 81% 30.25 in 7.0 mi Calm Calm - N/A   Overcast
6:30 AM 37.4 °F - 32.0 °F 81% 30.25 in 8.0 mi Calm Calm - N/A   Overcast
6:53 AM 37.0 °F - 32.0 °F 82% 30.28 in 7.0 mi Calm Calm - N/A   Overcast
7:17 AM 37.4 °F - 33.8 °F 87% 30.26 in 7.0 mi Calm Calm - N/A   Overcast
7:53 AM 37.9 °F - 33.1 °F 83% 30.28 in 7.0 mi Calm Calm - N/A   Overcast
8:53 AM 37.9 °F - 33.1 °F 83% 30.30 in 5.0 mi Calm Calm - N/A   Haze
9:53 AM 39.0 °F 36.8 °F 33.1 °F 79% 30.30 in 6.0 mi South 3.5 mph - N/A   Haze
10:53 AM 43.0 °F 41.3 °F 35.1 °F 74% 30.30 in 8.0 mi SSW 3.5 mph - N/A   Mostly Cloudy
11:53 AM 46.9 °F - 36.0 °F 66% 30.26 in 10.0 mi Variable 3.5 mph - N/A   Clear
12:53 PM 48.9 °F - 36.0 °F 61% 30.22 in 10.0 mi SSW 5.8 mph - N/A   Clear
1:53 PM 51.1 °F - 37.9 °F 61% 30.20 in 10.0 mi Calm Calm - N/A   Clear
2:53 PM 51.1 °F - 37.0 °F 59% 30.19 in 10.0 mi West 4.6 mph - N/A   Clear
3:43 PM 51.8 °F - 37.4 °F 58% 30.18 in 10.0 mi SW 4.6 mph - N/A   Mostly Cloudy
3:53 PM 50.0 °F - 37.0 °F 61% 30.20 in 10.0 mi SSW 4.6 mph - N/A   Mostly Cloudy
4:09 PM 50.0 °F - 37.4 °F 62% 30.17 in 10.0 mi South 3.5 mph - N/A   Scattered Clouds
4:53 PM 48.9 °F - 37.0 °F 64% 30.18 in 10.0 mi Calm Calm - N/A   Clear
5:53 PM 48.0 °F - 37.0 °F 66% 30.17 in 10.0 mi Calm Calm - N/A   Clear
6:53 PM 44.1 °F - 36.0 °F 73% 30.19 in 10.0 mi Calm Calm - N/A   Clear
7:53 PM 41.0 °F - 35.1 °F 79% 30.18 in 10.0 mi Calm Calm - N/A   Clear
8:53 PM 41.0 °F - 35.1 °F 79% 30.16 in 7.0 mi Calm Calm - N/A   Clear
9:53 PM 39.9 °F - 35.1 °F 83% 30.14 in 7.0 mi Calm Calm - N/A   Clear
10:53 PM 39.9 °F - 35.1 °F 83% 30.10 in 8.0 mi Calm Calm - N/A   Clear
11:53 PM 39.0 °F - 34.0 °F 82% 30.07 in 5.0 mi Calm Calm - N/A   Haze